Ravenna, OH

5:41 AM EST on December 12, 2017 (GMT -0500)
Ravenna

Weather History for KPOV - March, 2014

Change the Weather History Date:

Monday, March 24, 2014

  Actual Average (KCAK) Record (KCAK)
Temperature  
Mean Temperature 22 °F -  
Max Temperature 29 °F 46 °F 82 °F (1910)
Min Temperature 15 °F 28 °F 8 °F (1906)
Degree Days  
Heating Degree Days 43    
Moisture  
Dew Point 10 °F    
Average Humidity 63    
Maximum Humidity 82    
Minimum Humidity 42    
Precipitation  
Precipitation 0.00 in - - ()
Sea Level Pressure  
Sea Level Pressure 30.21 in    
Wind  
Wind Speed 2 mph (WSW)    
Max Wind Speed 12 mph    
Max Gust Speed 17 mph    
Visibility 10 miles    
Events Snow    
Averages and records for this station are not official NWS values.
T = Trace of Precipitation, MM = Missing Value Source: NWS Daily Summary

Daily Weather History Graph

Daily Weather History Graph

Search for Another Location

Airport or City:

Trip Planner

Search our weather history database for the weather conditions in past years. The results will help you decide how hot, cold, wet, or windy it might be!

Date:

Astronomy

Mar. 24, 2014 Rise Set
Actual Time 7:21 AM EDT 7:41 PM EDT
Civil Twilight 6:54 AM EDT 8:09 PM EDT
Nautical Twilight 6:21 AM EDT 8:41 PM EDT
Astronomical Twilight 5:48 AM EDT 9:14 PM EDT
Moon 2:53 AM EDT (3/24) 1:02 PM EDT (3/24)
Length of Visible Light 13h 15m
Length of Day
12h 19m
Last Quarter, 43% of the Moon is Illuminated
Mar 24
Last Quarter
Mar 30
New
Apr 7
First Quarter
Apr 15
Full
Apr 22
Last Quarter

Hourly Weather History & Observations

Time (EDT) Temp. Windchill Dew Point Humidity Pressure Visibility Wind Dir Wind Speed Gust Speed Precip Events Conditions
12:14 AM 18.3 °F - 9.5 °F 68% 30.30 in 10.0 mi Calm Calm - N/A   Overcast
12:34 AM 18.0 °F - 9.5 °F 70% 30.30 in 10.0 mi Calm Calm - N/A   Overcast
12:55 AM 17.8 °F - 9.5 °F 70% 30.29 in 10.0 mi Calm Calm - N/A   Overcast
1:14 AM 17.6 °F - 9.3 °F 70% 30.29 in 10.0 mi Calm Calm - N/A   Overcast
1:34 AM 17.8 °F - 9.9 °F 71% 30.29 in 10.0 mi Calm Calm - N/A   Overcast
1:54 AM 17.4 °F - 9.5 °F 71% 30.29 in 10.0 mi Calm Calm - N/A   Overcast
2:14 AM 17.2 °F - 10.4 °F 75% 30.28 in 10.0 mi Calm Calm - N/A   Mostly Cloudy
2:34 AM 16.7 °F - 10.9 °F 78% 30.28 in 10.0 mi Calm Calm - N/A   Overcast
2:54 AM 16.5 °F - 10.4 °F 77% 30.29 in 10.0 mi Calm Calm - N/A   Overcast
3:14 AM 17.2 °F - 11.8 °F 79% 30.28 in 10.0 mi Calm Calm - N/A   Overcast
3:34 AM 17.4 °F - 11.3 °F 77% 30.27 in 10.0 mi Calm Calm - N/A   Overcast
3:54 AM 17.6 °F - 11.8 °F 78% 30.28 in 10.0 mi Calm Calm - N/A   Overcast
4:14 AM 17.4 °F - 11.1 °F 76% 30.27 in 10.0 mi Calm Calm - N/A   Overcast
4:34 AM 17.4 °F - 11.3 °F 77% 30.27 in 10.0 mi Calm Calm - N/A   Overcast
4:54 AM 16.5 °F - 11.1 °F 79% 30.27 in 10.0 mi Calm Calm - N/A   Mostly Cloudy
5:14 AM 16.3 °F - 11.1 °F 80% 30.27 in 10.0 mi Calm Calm - N/A   Overcast
5:34 AM 16.5 °F - 11.5 °F 81% 30.27 in 10.0 mi Calm Calm - N/A   Overcast
5:54 AM 16.7 °F - 11.8 °F 81% 30.27 in 10.0 mi Calm Calm - N/A   Overcast
6:14 AM 16.7 °F - 12.2 °F 82% 30.27 in 10.0 mi Calm Calm - N/A   Overcast
6:34 AM 16.7 °F - 11.8 °F 81% 30.27 in 10.0 mi Calm Calm - N/A   Overcast
6:55 AM 16.3 °F - 11.3 °F 81% 30.27 in 10.0 mi Calm Calm - N/A   Scattered Clouds
7:14 AM 15.8 °F - 11.3 °F 82% 30.27 in 10.0 mi Calm Calm - N/A   Scattered Clouds
7:34 AM 15.8 °F - 11.3 °F 82% 30.27 in 10.0 mi Calm Calm - N/A   Clear
7:55 AM 16.5 °F - 11.3 °F 80% 30.28 in 10.0 mi Calm Calm - N/A   Mostly Cloudy
8:14 AM 17.2 °F 11.9 °F 11.8 °F 79% 30.28 in 10.0 mi SW 3.5 mph - N/A   Overcast
8:34 AM 17.8 °F 12.5 °F 12.0 °F 78% 30.28 in 10.0 mi SW 3.5 mph - N/A   Overcast
8:54 AM 18.3 °F 13.1 °F 11.8 °F 76% 30.28 in 10.0 mi SSW 3.5 mph - N/A   Overcast
9:14 AM 18.9 °F 12.1 °F 10.9 °F 71% 30.27 in 10.0 mi SSW 4.6 mph - N/A   Overcast
9:34 AM 19.9 °F 13.4 °F 11.1 °F 69% 30.27 in 10.0 mi SW 4.6 mph - N/A   Overcast
9:54 AM 20.7 °F 13.0 °F 11.1 °F 67% 30.28 in 10.0 mi SSW 5.8 mph - N/A   Overcast
10:14 AM 21.2 °F 16.4 °F 10.9 °F 65% 30.28 in 10.0 mi WSW 3.5 mph - N/A   Overcast
10:34 AM 22.1 °F 14.7 °F 9.5 °F 58% 30.27 in 10.0 mi SSW 5.8 mph - N/A   Overcast
10:55 AM 22.8 °F 15.5 °F 9.9 °F 58% 30.27 in 10.0 mi SW 5.8 mph - N/A   Overcast
11:14 AM 23.9 °F 16.8 °F 9.3 °F 54% 30.26 in 10.0 mi West 5.8 mph - N/A   Overcast
11:34 AM 23.4 °F 13.5 °F 10.6 °F 58% 30.25 in 7.0 mi West 9.2 mph - N/A   Overcast
11:54 AM 24.4 °F 18.6 °F 10.4 °F 55% 30.25 in 10.0 mi West 4.6 mph - N/A   Overcast
12:14 PM 24.3 °F 19.9 °F 10.0 °F 55% 30.24 in 10.0 mi SW 3.5 mph - N/A   Overcast
12:34 PM 25.0 °F 14.8 °F 10.2 °F 54% 30.24 in 10.0 mi West 10.4 mph - N/A   Overcast
12:54 PM 24.8 °F 17.9 °F 10.2 °F 54% 30.23 in 10.0 mi WSW 5.8 mph - N/A   Overcast
1:14 PM 25.7 °F 16.4 °F 9.1 °F 50% 30.22 in 10.0 mi WSW 9.2 mph - N/A   Overcast
1:34 PM 25.7 °F 15.7 °F 9.0 °F 49% 30.22 in 10.0 mi West 10.4 mph - N/A   Overcast
1:54 PM 26.4 °F 19.8 °F 9.9 °F 50% 30.21 in 10.0 mi WSW 5.8 mph - N/A   Overcast
2:14 PM 26.6 °F 18.2 °F 9.5 °F 49% 30.20 in 10.0 mi West 8.1 mph - N/A   Overcast
2:34 PM 26.8 °F 20.2 °F 11.5 °F 53% 30.19 in 10.0 mi WSW 5.8 mph - N/A   Overcast
2:55 PM 28.6 °F 20.7 °F 11.3 °F 48% 30.18 in 10.0 mi West 8.1 mph 16.1 mph N/A   Overcast
3:14 PM 26.8 °F 20.2 °F 12.7 °F 56% 30.17 in 7.0 mi SSW 5.8 mph - N/A Snow Light Snow
3:34 PM 28.8 °F 20.2 °F 10.0 °F 46% 30.15 in 10.0 mi WSW 9.2 mph 16.1 mph N/A   Mostly Cloudy
3:55 PM 28.8 °F 20.9 °F 10.8 °F 47% 30.15 in 10.0 mi WNW 8.1 mph - N/A   Overcast
4:14 PM 29.7 °F 21.3 °F 10.9 °F 46% 30.13 in 10.0 mi WSW 9.2 mph - N/A   Overcast
4:34 PM 29.5 °F 20.4 °F 9.5 °F 43% 30.13 in 10.0 mi West 10.4 mph - N/A   Overcast
4:54 PM 28.8 °F 20.9 °F 11.7 °F 49% 30.12 in 10.0 mi WSW 8.1 mph - N/A   Overcast
5:14 PM 28.6 °F 21.5 °F 11.1 °F 48% 30.12 in 10.0 mi West 6.9 mph - N/A   Mostly Cloudy
5:34 PM 29.7 °F 20.1 °F 9.5 °F 43% 30.11 in 10.0 mi WNW 11.5 mph - N/A   Mostly Cloudy
5:54 PM 29.3 °F 20.2 °F 8.4 °F 42% 30.12 in 10.0 mi West 10.4 mph 17.3 mph N/A   Scattered Clouds
6:14 PM 28.2 °F 20.2 °F 9.0 °F 44% 30.11 in 10.0 mi West 8.1 mph - N/A   Scattered Clouds
6:34 PM 28.6 °F 19.9 °F 8.1 °F 42% 30.11 in 10.0 mi West 9.2 mph - N/A   Scattered Clouds
6:55 PM 27.3 °F 20.9 °F 9.0 °F 46% 30.12 in 10.0 mi NW 5.8 mph - N/A   Mostly Cloudy
7:14 PM 26.6 °F 21.2 °F 9.0 °F 47% 30.12 in 10.0 mi NW 4.6 mph - N/A   Mostly Cloudy
7:34 PM 25.7 °F 21.5 °F 8.4 °F 48% 30.11 in 10.0 mi WNW 3.5 mph - N/A   Scattered Clouds
7:55 PM 25.5 °F - 7.7 °F 47% 30.11 in 10.0 mi Calm Calm - N/A   Clear
8:14 PM 24.8 °F - 8.8 °F 51% 30.12 in 10.0 mi Calm Calm - N/A   Clear
8:34 PM 23.9 °F - 8.4 °F 52% 30.11 in 10.0 mi Calm Calm - N/A   Clear
8:54 PM 23.5 °F - 7.7 °F 51% 30.11 in 10.0 mi Calm Calm - N/A   Clear
9:14 PM 22.8 °F - 9.0 °F 55% 30.11 in 10.0 mi Calm Calm - N/A   Clear
9:34 PM 21.2 °F - 10.4 °F 63% 30.11 in 10.0 mi Calm Calm - N/A   Clear
9:54 PM 21.2 °F - 10.2 °F 63% 30.10 in 10.0 mi Calm Calm - N/A   Clear
10:15 PM 20.3 °F - 11.8 °F 70% 30.10 in 10.0 mi Calm Calm - N/A   Clear
10:34 PM 20.5 °F - 12.0 °F 70% 30.09 in 10.0 mi Calm Calm - N/A   Clear
10:54 PM 20.5 °F 15.6 °F 12.0 °F 70% 30.08 in 10.0 mi SSE 3.5 mph - N/A   Clear
11:14 PM 20.3 °F - 11.5 °F 69% 30.08 in 10.0 mi Calm Calm - N/A   Clear
11:34 PM 20.3 °F - 11.1 °F 68% 30.07 in 5.0 mi Calm Calm - N/A   Haze
11:54 PM 19.9 °F - 11.3 °F 69% 30.07 in 10.0 mi Calm Calm - N/A   Clear